EWG7C EDDH-LEPA

Flight info

Callsign EWG7C
Flight time N/A
Altitude 23000
Route IDEKO7G IDEKO N850 PIROT/N0433F370 N850 XAROL/N0432F360 DCT BOMBI DCT GIGET DCT ABUKA DCT KRH DCT NATOR/N0434F370 DCT LUTIX DCT BENOT DCT NEMOS DCT GEVEA DCT INCUS DCT BALSI DCT RETNO DCT TUPOX DCT MTG DCT DIVKO DCT VATIR N852 VERSO L129 LUNIK
Aircraft A320/M-SDE3FGHIRWY/LB1

Departure

Time 2026-05-01 09:06
Airport Hamburg Helmut Schmidt Airport (EDDH)

Arrival

Time N/A
Airport Palma de Mallorca Airport (LEPA)
Time Latitude Longitude Altitude Speed Heading
2026-05-01 08:35 53.63373 10.00344 47 ft 0 kts 86°
2026-05-01 08:37 53.63373 10.00342 48 ft 0 kts 86°
2026-05-01 08:37 53.63373 10.00344 48 ft 0 kts 86°
2026-05-01 08:57 53.63371 10.00307 72 ft 4 kts 86°
2026-05-01 08:57 53.63370 10.00270 46 ft 4 kts 89°
2026-05-01 08:57 53.63374 10.00233 44 ft 4 kts 148°
2026-05-01 08:58 53.63397 10.00225 48 ft 3 kts 176°
2026-05-01 08:58 53.63401 10.00224 48 ft 0 kts 176°
2026-05-01 09:01 53.63400 10.00224 48 ft 2 kts 176°
2026-05-01 09:01 53.63347 10.00231 46 ft 11 kts 176°
2026-05-01 09:01 53.63262 10.00241 48 ft 12 kts 176°
2026-05-01 09:02 53.63210 10.00248 48 ft 4 kts 175°
2026-05-01 09:02 53.63185 10.00250 48 ft 3 kts 177°
2026-05-01 09:02 53.63170 10.00252 48 ft 2 kts 177°
2026-05-01 09:02 53.63166 10.00252 48 ft 0 kts 177°
2026-05-01 09:03 53.63160 10.00253 48 ft 6 kts 175°
2026-05-01 09:03 53.63109 10.00260 48 ft 7 kts 175°
2026-05-01 09:03 53.63062 10.00256 48 ft 6 kts 199°
2026-05-01 09:03 53.63026 10.00218 48 ft 8 kts 213°
2026-05-01 09:04 53.62942 10.00127 48 ft 16 kts 213°
2026-05-01 09:04 53.62857 10.00005 48 ft 16 kts 244°
2026-05-01 09:04 53.62815 9.99856 45 ft 11 kts 243°
2026-05-01 09:04 53.62842 9.99768 45 ft 9 kts 330°
2026-05-01 09:05 53.62932 9.99689 45 ft 36 kts 333°
2026-05-01 09:05 53.63375 9.99306 47 ft 106 kts 333°
2026-05-01 09:05 53.64201 9.98593 54 ft 160 kts 333°
2026-05-01 09:05 53.65221 9.97707 532 ft 165 kts 333°
2026-05-01 09:06 53.66270 9.96791 1257 ft 168 kts 332°
2026-05-01 09:06 53.67338 9.95827 1710 ft 184 kts 330°
2026-05-01 09:06 53.68523 9.94730 2214 ft 199 kts 330°
2026-05-01 09:06 53.69752 9.93600 2654 ft 210 kts 330°
2026-05-01 09:07 53.71018 9.92226 3075 ft 225 kts 317°
2026-05-01 09:07 53.71850 9.89987 3597 ft 232 kts 277°
2026-05-01 09:07 53.71629 9.87235 3959 ft 253 kts 246°
2026-05-01 09:07 53.70836 9.84471 4554 ft 265 kts 240°
2026-05-01 09:08 53.69989 9.81677 5405 ft 270 kts 241°
2026-05-01 09:08 53.69173 9.78799 6257 ft 274 kts 244°
2026-05-01 09:08 53.68469 9.75773 7062 ft 282 kts 249°
2026-05-01 09:08 53.67878 9.72584 7834 ft 287 kts 251°
2026-05-01 09:09 53.67199 9.69409 8600 ft 289 kts 238°
2026-05-01 09:09 53.65914 9.66830 9365 ft 289 kts 214°
2026-05-01 09:09 53.64156 9.65350 10130 ft 287 kts 191°
2026-05-01 09:09 53.62189 9.64700 10798 ft 294 kts 187°
2026-05-01 09:10 53.60093 9.64054 11028 ft 318 kts 187°
2026-05-01 09:10 53.57876 9.63367 11453 ft 331 kts 187°
2026-05-01 09:10 53.55593 9.62650 12129 ft 336 kts 187°
2026-05-01 09:10 53.53285 9.61921 12849 ft 339 kts 187°
2026-05-01 09:11 53.50954 9.61184 13584 ft 342 kts 188°
2026-05-01 09:11 53.48609 9.60441 14294 ft 346 kts 188°
2026-05-01 09:11 53.46232 9.59685 14908 ft 349 kts 188°
2026-05-01 09:11 53.43830 9.58921 15541 ft 352 kts 188°
2026-05-01 09:12 53.41413 9.58157 16160 ft 356 kts 188°
2026-05-01 09:12 53.38978 9.57393 16773 ft 359 kts 188°
2026-05-01 09:12 53.36522 9.56622 17373 ft 362 kts 188°
2026-05-01 09:12 53.34055 9.55849 17950 ft 366 kts 188°
2026-05-01 09:13 53.31504 9.55051 18548 ft 370 kts 188°
2026-05-01 09:13 53.28959 9.54254 19085 ft 373 kts 189°
2026-05-01 09:13 53.26441 9.53466 19605 ft 376 kts 189°
2026-05-01 09:13 53.23844 9.52653 20130 ft 380 kts 189°
2026-05-01 09:14 53.21238 9.51836 20659 ft 383 kts 189°
2026-05-01 09:14 53.18614 9.51015 21186 ft 386 kts 189°
2026-05-01 09:14 53.15966 9.50189 21702 ft 389 kts 189°
2026-05-01 09:14 53.13318 9.49362 22212 ft 392 kts 189°
2026-05-01 09:15 53.10647 9.48534 22720 ft 395 kts 189°
2026-05-01 09:15 53.07900 9.47684 23236 ft 398 kts 189°
2026-05-01 09:15 53.05201 9.46851 23727 ft 402 kts 188°
2026-05-01 09:15 53.02439 9.46003 24172 ft 405 kts 189°
2026-05-01 09:16 52.99680 9.45155 24580 ft 407 kts 189°
2026-05-01 09:16 52.96859 9.44376 25002 ft 409 kts 187°
2026-05-01 09:16 52.94065 9.43729 25380 ft 411 kts 186°
2026-05-01 09:17 52.88466 9.42623 26121 ft 416 kts 185°
2026-05-01 09:17 52.85743 9.42130 26443 ft 419 kts 185°
2026-05-01 09:17 52.80009 9.40964 27118 ft 424 kts 187°
2026-05-01 09:18 52.77082 9.40328 27458 ft 427 kts 186°
2026-05-01 09:18 52.71162 9.39042 28149 ft 431 kts 187°
2026-05-01 09:19 52.65149 9.37757 28834 ft 436 kts 186°
2026-05-01 09:19 52.62150 9.37122 29101 ft 440 kts 187°
2026-05-01 09:19 52.59113 9.36414 29401 ft 442 kts 188°
2026-05-01 09:20 52.53026 9.34795 30028 ft 446 kts 189°
2026-05-01 09:20 52.46911 9.33104 30576 ft 451 kts 189°
2026-05-01 09:21 52.40702 9.31453 31071 ft 454 kts 188°
2026-05-01 09:21 52.37571 9.30648 31251 ft 457 kts 188°
2026-05-01 09:21 52.31263 9.29035 31657 ft 461 kts 189°
2026-05-01 09:22 52.24936 9.27384 32289 ft 460 kts 189°
2026-05-01 09:22 52.18648 9.25913 32910 ft 458 kts 187°
2026-05-01 09:23 52.15477 9.25344 33239 ft 457 kts 186°
2026-05-01 09:23 52.09144 9.24321 33780 ft 458 kts 186°
2026-05-01 09:24 52.02817 9.23187 34443 ft 456 kts 188°
2026-05-01 09:24 51.99682 9.22434 34695 ft 455 kts 189°
2026-05-01 09:24 51.93448 9.20697 35182 ft 455 kts 190°
2026-05-01 09:25 51.87275 9.18963 35650 ft 454 kts 189°
2026-05-01 09:25 51.81013 9.17507 36075 ft 454 kts 187°
2026-05-01 09:26 51.77884 9.16877 36316 ft 452 kts 187°
2026-05-01 09:26 51.71633 9.15634 36709 ft 452 kts 187°
2026-05-01 09:26 51.68520 9.14989 36888 ft 452 kts 188°
2026-05-01 09:27 51.62300 9.13635 37343 ft 449 kts 188°
2026-05-01 09:27 51.59199 9.12957 37416 ft 449 kts 188°
2026-05-01 09:28 51.53066 9.11627 37421 ft 447 kts 188°
2026-05-01 09:28 51.46917 9.10091 37419 ft 447 kts 192°
2026-05-01 09:29 51.37811 9.06845 37423 ft 447 kts 193°
2026-05-01 09:30 51.28692 9.03770 37426 ft 448 kts 189°
2026-05-01 09:30 51.19450 9.02022 37427 ft 448 kts 186°
2026-05-01 09:31 51.13251 9.00972 37432 ft 448 kts 187°
2026-05-01 09:32 51.03987 8.99145 37416 ft 448 kts 187°
2026-05-01 09:32 50.94711 8.97272 37425 ft 448 kts 187°
2026-05-01 09:33 50.88537 8.96049 37426 ft 448 kts 187°
2026-05-01 09:34 50.79259 8.94242 37437 ft 450 kts 187°
2026-05-01 09:34 50.69943 8.92409 37431 ft 449 kts 187°
2026-05-01 09:35 50.60626 8.90587 37434 ft 449 kts 187°
2026-05-01 09:36 50.54883 8.89489 37430 ft 448 kts 187°
2026-05-01 09:36 50.48685 8.88288 37428 ft 448 kts 187°
2026-05-01 09:37 50.42453 8.87068 37423 ft 448 kts 187°
2026-05-01 09:37 50.33120 8.85276 37415 ft 449 kts 187°
2026-05-01 09:38 50.23845 8.83496 37395 ft 449 kts 187°
2026-05-01 09:39 50.14545 8.81716 37396 ft 449 kts 187°
2026-05-01 09:39 50.08343 8.80538 37393 ft 449 kts 187°
2026-05-01 09:40 49.99062 8.78702 37391 ft 449 kts 188°
2026-05-01 09:41 49.92910 8.77395 37393 ft 449 kts 188°
2026-05-01 09:41 49.83633 8.75435 37392 ft 448 kts 187°
2026-05-01 09:42 49.77453 8.74166 37393 ft 448 kts 187°
2026-05-01 09:43 49.65100 8.71647 37391 ft 447 kts 187°
2026-05-01 09:43 49.58927 8.70403 37382 ft 447 kts 187°
2026-05-01 09:44 49.49672 8.68540 37382 ft 447 kts 187°
2026-05-01 09:45 49.43538 8.67313 37379 ft 447 kts 187°
2026-05-01 09:45 49.34252 8.65423 37377 ft 448 kts 187°
2026-05-01 09:46 49.28143 8.64187 37370 ft 448 kts 187°
2026-05-01 09:46 49.21970 8.62962 37368 ft 448 kts 187°
2026-05-01 09:47 49.15861 8.61735 37345 ft 448 kts 187°
2026-05-01 09:47 49.09685 8.60493 37345 ft 448 kts 187°
2026-05-01 09:48 49.03504 8.59259 37343 ft 448 kts 187°
2026-05-01 09:48 48.97328 8.57943 37339 ft 448 kts 189°
2026-05-01 09:49 48.91227 8.56051 37343 ft 447 kts 193°
2026-05-01 09:49 48.85169 8.53900 37348 ft 447 kts 193°
2026-05-01 09:50 48.79088 8.51840 37347 ft 446 kts 192°
2026-05-01 09:50 48.73034 8.49898 37338 ft 446 kts 191°
2026-05-01 09:51 48.66942 8.47977 37325 ft 447 kts 191°
2026-05-01 09:51 48.60893 8.46047 37330 ft 448 kts 191°
2026-05-01 09:52 48.54796 8.44101 37325 ft 448 kts 192°
2026-05-01 09:52 48.48691 8.42152 37332 ft 448 kts 191°
2026-05-01 09:53 48.42588 8.40208 37326 ft 448 kts 191°
2026-05-01 09:53 48.36489 8.38270 37322 ft 448 kts 191°
2026-05-01 09:54 48.30387 8.36338 37331 ft 448 kts 192°
2026-05-01 09:54 48.25318 8.34740 37344 ft 447 kts 192°
2026-05-01 09:55 48.18285 8.32304 37338 ft 446 kts 199°
2026-05-01 09:55 48.12791 8.28063 37329 ft 445 kts 213°
2026-05-01 09:56 48.08476 8.23878 37326 ft 445 kts 213°
2026-05-01 09:56 48.03269 8.18861 37324 ft 445 kts 213°
2026-05-01 09:57 47.98061 8.13866 37327 ft 445 kts 213°
2026-05-01 09:57 47.92851 8.08879 37324 ft 445 kts 213°
2026-05-01 09:58 47.87637 8.03897 37325 ft 445 kts 213°
2026-05-01 09:58 47.82422 7.98907 37321 ft 445 kts 213°
2026-05-01 09:59 47.77253 7.93987 37325 ft 445 kts 213°
2026-05-01 09:59 47.72029 7.89034 37317 ft 446 kts 213°
2026-05-01 10:00 47.66807 7.84085 37318 ft 446 kts 213°
2026-05-01 10:00 47.61572 7.79141 37325 ft 446 kts 213°
2026-05-01 10:01 47.56336 7.74214 37328 ft 446 kts 213°
2026-05-01 10:01 47.51139 7.69329 37331 ft 446 kts 213°
2026-05-01 10:02 47.45906 7.64414 37330 ft 445 kts 212°
2026-05-01 10:02 47.40674 7.59520 37327 ft 445 kts 212°
2026-05-01 10:03 47.35436 7.54669 37335 ft 445 kts 212°
2026-05-01 10:03 47.30166 7.50009 37333 ft 444 kts 211°
2026-05-01 10:04 47.24837 7.45395 37334 ft 444 kts 211°
2026-05-01 10:04 47.19505 7.40763 37353 ft 443 kts 211°
2026-05-01 10:05 47.14255 7.36181 37349 ft 442 kts 211°
2026-05-01 10:05 47.08986 7.31583 37336 ft 440 kts 211°
2026-05-01 10:06 47.03722 7.27005 37334 ft 439 kts 211°
2026-05-01 10:06 46.98459 7.22449 37323 ft 439 kts 211°
2026-05-01 10:07 46.93204 7.17904 37331 ft 439 kts 211°
2026-05-01 10:07 46.87980 7.13394 37342 ft 439 kts 210°
2026-05-01 10:08 46.80091 7.06606 37327 ft 439 kts 211°
2026-05-01 10:09 46.74851 7.02105 37331 ft 439 kts 211°
2026-05-01 10:09 46.69608 6.97614 37347 ft 439 kts 211°
2026-05-01 10:10 46.64275 6.93063 37340 ft 439 kts 211°
2026-05-01 10:10 46.56363 6.86327 37327 ft 439 kts 210°
2026-05-01 10:11 46.51156 6.81885 37343 ft 438 kts 210°
2026-05-01 10:11 46.45896 6.77440 37342 ft 437 kts 210°
2026-05-01 10:12 46.40671 6.73031 37326 ft 437 kts 210°
2026-05-01 10:13 46.32789 6.66390 37330 ft 436 kts 210°
2026-05-01 10:13 46.27549 6.61981 37326 ft 436 kts 210°
2026-05-01 10:14 46.19699 6.55410 37315 ft 435 kts 210°
2026-05-01 10:14 46.14459 6.51028 37333 ft 435 kts 210°
2026-05-01 10:15 46.09234 6.46661 37330 ft 434 kts 210°
2026-05-01 10:15 46.04019 6.42322 37318 ft 433 kts 210°
2026-05-01 10:16 45.98827 6.38024 37314 ft 432 kts 211°
2026-05-01 10:17 45.90973 6.31559 37304 ft 432 kts 211°
2026-05-01 10:17 45.83201 6.25087 37320 ft 430 kts 210°
2026-05-01 10:18 45.75428 6.18688 37311 ft 429 kts 211°
2026-05-01 10:19 45.70289 6.14473 37307 ft 429 kts 211°
2026-05-01 10:19 45.65130 6.10245 37311 ft 428 kts 211°
2026-05-01 10:20 45.57367 6.03921 37298 ft 428 kts 211°
2026-05-01 10:20 45.52188 5.99713 37293 ft 429 kts 211°
2026-05-01 10:21 45.43952 5.94892 37296 ft 431 kts 193°
2026-05-01 10:22 45.35184 5.92156 37288 ft 433 kts 194°
2026-05-01 10:23 45.26388 5.89405 37289 ft 433 kts 194°
2026-05-01 10:23 45.17541 5.86659 37292 ft 434 kts 194°
2026-05-01 10:24 45.05761 5.83010 37287 ft 434 kts 194°
2026-05-01 10:25 44.93926 5.79368 37291 ft 436 kts 195°
2026-05-01 10:26 44.87997 5.77565 37295 ft 436 kts 195°
2026-05-01 10:27 44.76171 5.73933 37305 ft 437 kts 195°
2026-05-01 10:28 44.67270 5.71217 37306 ft 437 kts 195°
2026-05-01 10:28 44.58381 5.68514 37326 ft 436 kts 195°
2026-05-01 10:29 44.49543 5.65832 37322 ft 435 kts 195°
2026-05-01 10:30 44.37750 5.62157 37317 ft 432 kts 201°
2026-05-01 10:31 44.26577 5.56079 37307 ft 431 kts 204°
2026-05-01 10:32 44.18233 5.51534 37303 ft 431 kts 204°
2026-05-01 10:33 44.07085 5.45398 37298 ft 431 kts 207°
2026-05-01 10:34 43.99008 5.39949 37295 ft 430 kts 210°
2026-05-01 10:34 43.93702 5.36229 37297 ft 431 kts 209°
2026-05-01 10:35 43.85617 5.30772 37300 ft 431 kts 208°
2026-05-01 10:35 43.80226 5.27195 37309 ft 430 kts 208°
2026-05-01 10:36 43.72149 5.21820 37313 ft 429 kts 208°
2026-05-01 10:37 43.66810 5.18248 37308 ft 429 kts 208°
2026-05-01 10:37 43.58741 5.12882 37306 ft 429 kts 208°
2026-05-01 10:38 43.53351 5.09318 37305 ft 429 kts 208°
2026-05-01 10:38 43.47969 5.05757 37297 ft 429 kts 208°
2026-05-01 10:39 43.42594 5.02207 37302 ft 429 kts 208°
2026-05-01 10:39 43.37204 4.98667 37303 ft 429 kts 208°
2026-05-01 10:40 43.31853 4.95148 37293 ft 429 kts 207°
2026-05-01 10:40 43.26463 4.91607 37306 ft 429 kts 207°
2026-05-01 10:41 43.21082 4.88081 37313 ft 429 kts 208°
2026-05-01 10:42 43.13007 4.82813 37317 ft 428 kts 207°
2026-05-01 10:42 43.07669 4.79328 37313 ft 428 kts 207°
2026-05-01 10:43 43.02297 4.75833 37316 ft 428 kts 209°
2026-05-01 10:43 42.96927 4.72347 37318 ft 427 kts 207°
2026-05-01 10:44 42.91591 4.68900 37301 ft 426 kts 208°
2026-05-01 10:44 42.86237 4.65440 37315 ft 425 kts 206°
2026-05-01 10:45 42.80896 4.61994 37321 ft 425 kts 206°
2026-05-01 10:45 42.75560 4.58557 37314 ft 424 kts 209°
2026-05-01 10:46 42.70234 4.55128 37321 ft 423 kts 207°
2026-05-01 10:46 42.64957 4.51743 37320 ft 422 kts 207°
2026-05-01 10:47 42.59650 4.48347 37309 ft 422 kts 207°
2026-05-01 10:47 42.54351 4.44959 37310 ft 421 kts 206°
2026-05-01 10:48 42.49051 4.41565 37295 ft 421 kts 207°
2026-05-01 10:48 42.43757 4.38186 37303 ft 421 kts 207°
2026-05-01 10:49 42.38456 4.34836 37298 ft 420 kts 207°
2026-05-01 10:49 42.33192 4.31509 37295 ft 420 kts 208°
2026-05-01 10:50 42.27895 4.28152 37282 ft 421 kts 208°
2026-05-01 10:50 42.22594 4.24792 37282 ft 421 kts 207°
2026-05-01 10:51 42.17295 4.21437 37281 ft 421 kts 206°
2026-05-01 10:51 42.11984 4.18091 37280 ft 421 kts 207°
2026-05-01 10:52 42.06717 4.14782 37290 ft 420 kts 207°
2026-05-01 10:52 42.01418 4.11468 37290 ft 420 kts 207°
2026-05-01 10:53 41.96128 4.08152 37289 ft 420 kts 207°
2026-05-01 10:53 41.90843 4.04833 37282 ft 419 kts 207°
2026-05-01 10:54 41.85588 4.01558 37287 ft 419 kts 207°
2026-05-01 10:54 41.80311 3.98282 37291 ft 418 kts 207°
2026-05-01 10:55 41.75081 3.95028 37287 ft 418 kts 207°
2026-05-01 10:55 41.69815 3.91754 37276 ft 417 kts 207°
2026-05-01 10:56 41.64544 3.88504 37274 ft 417 kts 207°
2026-05-01 10:56 41.59239 3.85494 37269 ft 419 kts 199°
2026-05-01 10:57 41.53666 3.83216 37267 ft 419 kts 199°
2026-05-01 10:57 41.48099 3.80952 37263 ft 418 kts 199°
2026-05-01 10:58 41.42537 3.78686 37270 ft 418 kts 199°
2026-05-01 10:58 41.37014 3.76439 37262 ft 417 kts 199°
2026-05-01 10:59 41.31467 3.74190 37265 ft 417 kts 199°
2026-05-01 10:59 41.25912 3.71945 37106 ft 418 kts 199°
2026-05-01 10:59 41.23134 3.70825 36728 ft 417 kts 199°
2026-05-01 11:00 41.20352 3.69702 36370 ft 417 kts 199°
2026-05-01 11:00 41.17614 3.68596 36014 ft 416 kts 199°
2026-05-01 11:00 41.14814 3.67470 35653 ft 414 kts 199°
2026-05-01 11:00 41.12106 3.66381 35315 ft 412 kts 199°
2026-05-01 11:01 41.09364 3.65280 34961 ft 410 kts 199°
2026-05-01 11:01 41.06648 3.64188 34615 ft 408 kts 199°
2026-05-01 11:01 41.03938 3.63096 34284 ft 406 kts 199°
2026-05-01 11:01 41.01236 3.62013 33900 ft 405 kts 199°
2026-05-01 11:02 40.98548 3.60938 33519 ft 403 kts 199°
2026-05-01 11:02 40.95871 3.59868 33151 ft 401 kts 199°
2026-05-01 11:02 40.93264 3.58822 32786 ft 399 kts 199°
2026-05-01 11:02 40.90635 3.57766 32427 ft 397 kts 199°
2026-05-01 11:03 40.87998 3.56711 32068 ft 395 kts 199°
2026-05-01 11:03 40.85373 3.55669 31708 ft 394 kts 195°
2026-05-01 11:03 40.82722 3.54796 31506 ft 392 kts 199°
2026-05-01 11:03 40.80137 3.53648 31311 ft 391 kts 201°
2026-05-01 11:04 40.77572 3.52474 31076 ft 391 kts 199°
2026-05-01 11:04 40.75001 3.51393 30737 ft 389 kts 199°
2026-05-01 11:04 40.72434 3.50280 30415 ft 388 kts 201°
2026-05-01 11:04 40.69863 3.49210 30033 ft 387 kts 193°